When you browse on this site, cookies collect data to enhance your experience and personalize the content and advertising you see.
Visit our Privacy Policy to learn more. By continuing to use the site, you agree to this use of cookies and data.
  • In Slovakia
  • List of Countries
  • For 7 days
  • Water Temperature
  • Satellite Maps
  • Weather Map
  • Weather Widgets
  • user-avatar
    Login

    Hourly Weather Salzburg

    Today, 19 December, Wednesday

    Time Temperature Precipitation Wind Pressure Humidity
    00:00 -9°C° 0 mm 2 mps 625 mmHg 73%
    01:00 -9°C° 0 mm 1 mps 624 mmHg 75%
    02:00 -10°C° 0 mm 2 mps 624 mmHg 73%
    03:00 -9°C° 0 mm 2 mps 624 mmHg 71%
    04:00 -9°C° 0 mm 2 mps 624 mmHg 69%
    05:00 -9°C° 0 mm 2 mps 624 mmHg 68%
    06:00 -8°C° 0 mm 2 mps 624 mmHg 68%
    07:00 -8°C° 0 mm 2 mps 624 mmHg 67%
    08:00 -7°C° 0 mm 2 mps 625 mmHg 67%
    09:00 -4°C° 0 mm 1 mps 625 mmHg 68%
    10:00 -2°C° 0 mm 1 mps 625 mmHg 68%
    11:00 -1°C° 0 mm 1 mps 625 mmHg 71%
    12:00 0°C° 0 mm 1 mps 625 mmHg 74%
    13:00 +1°C° 0 mm 1 mps 625 mmHg 77%
    14:00 0°C° 0 mm 1 mps 625 mmHg 77%
    15:00 -1°C° 0 mm 1 mps 624 mmHg 77%
    16:00 -2°C° 0 mm 1 mps 624 mmHg 78%
    17:00 -3°C° 0 mm 1 mps 623 mmHg 78%
    18:00 -4°C° 0 mm 1 mps 623 mmHg 78%
    19:00 -7°C° 0 mm 2 mps 622 mmHg 78%
    20:00 -8°C° 0 mm 2 mps 622 mmHg 78%
    21:00 -8°C° 0 mm 2 mps 622 mmHg 78%
    22:00 -8°C° 0 mm 2 mps 622 mmHg 78%
    23:00 -8°C° 0 mm 2 mps 622 mmHg 78%

    Tomorrow, 20 December, Thursday

    Time Temperature Precipitation Wind Pressure Humidity
    00:00 -8°C° 0 mm 2 mps 622 mmHg 79%
    01:00 -8°C° 0 mm 2 mps 622 mmHg 79%
    02:00 -7°C° 0.2 mm 1 mps 623 mmHg 82%
    03:00 -6°C° 0.2 mm 1 mps 623 mmHg 84%
    04:00 -6°C° 0.2 mm 1 mps 623 mmHg 86%
    05:00 -4°C° 0.4 mm 1 mps 623 mmHg 88%
    06:00 -4°C° 0.4 mm 1 mps 624 mmHg 90%
    07:00 -4°C° 0.4 mm 1 mps 624 mmHg 92%
    08:00 -3°C° 0.4 mm 1 mps 624 mmHg 92%
    09:00 -3°C° 0.4 mm 1 mps 625 mmHg 92%
    10:00 -2°C° 0.4 mm 1 mps 625 mmHg 93%
    11:00 -2°C° 0.2 mm 1 mps 625 mmHg 92%
    12:00 -1°C° 0.2 mm 1 mps 625 mmHg 92%
    13:00 0°C° 0.2 mm 1 mps 625 mmHg 92%
    14:00 -1°C° 0.1 mm 1 mps 625 mmHg 92%
    15:00 -2°C° 0.1 mm 1 mps 625 mmHg 91%
    16:00 -2°C° 0.1 mm 1 mps 625 mmHg 91%
    17:00 -3°C° 0 mm 1 mps 625 mmHg 89%
    18:00 -4°C° 0 mm 1 mps 625 mmHg 87%
    19:00 -4°C° 0 mm 1 mps 626 mmHg 84%
    20:00 -7°C° 0 mm 2 mps 626 mmHg 83%
    21:00 -7°C° 0 mm 2 mps 626 mmHg 82%
    22:00 -8°C° 0 mm 2 mps 626 mmHg 81%
    23:00 -8°C° 0 mm 2 mps 625 mmHg 80%

    Day after tomorrow, 21 December, Friday

    Time Temperature Precipitation Wind Pressure Humidity
    00:00 -8°C° 0 mm 2 mps 625 mmHg 80%
    01:00 -8°C° 0 mm 2 mps 625 mmHg 79%
    02:00 -8°C° 0 mm 2 mps 625 mmHg 80%
    03:00 -8°C° 0 mm 2 mps 625 mmHg 80%
    04:00 -8°C° 0 mm 2 mps 625 mmHg 80%
    05:00 -7°C° 0 mm 2 mps 625 mmHg 79%
    06:00 -7°C° 0 mm 2 mps 625 mmHg 78%
    07:00 -7°C° 0 mm 2 mps 625 mmHg 78%
    08:00 -7°C° 0 mm 3 mps 625 mmHg 77%
    09:00 -6°C° 0 mm 3 mps 625 mmHg 77%
    10:00 -5°C° 0 mm 3 mps 625 mmHg 77%
    11:00 -4°C° 0.1 mm 3 mps 625 mmHg 78%
    12:00 -2°C° 0.1 mm 3 mps 624 mmHg 80%
    13:00 -1°C° 0.1 mm 3 mps 624 mmHg 82%
    14:00 -2°C° 0.6 mm 2 mps 624 mmHg 83%
    15:00 -2°C° 0.6 mm 2 mps 624 mmHg 85%
    16:00 -2°C° 0.6 mm 2 mps 624 mmHg 87%
    17:00 -2°C° 0.3 mm 2 mps 624 mmHg 86%
    18:00 -2°C° 0.3 mm 2 mps 624 mmHg 84%
    19:00 -3°C° 0.3 mm 2 mps 624 mmHg 83%
    20:00 -2°C° 0.6 mm 2 mps 624 mmHg 84%
    21:00 -2°C° 0.6 mm 2 mps 624 mmHg 84%
    22:00 -2°C° 0.6 mm 2 mps 624 mmHg 85%
    23:00 -2°C° 0.5 mm 2 mps 624 mmHg 85%

    22 December, Saturday

    Time Temperature Precipitation Wind Pressure Humidity
    00:00 -2°C° 0.5 mm 2 mps 624 mmHg 86%
    01:00 -1°C° 0.5 mm 2 mps 624 mmHg 86%
    02:00 -1°C° 0.3 mm 2 mps 624 mmHg 86%
    03:00 -1°C° 0.3 mm 2 mps 624 mmHg 86%
    04:00 -1°C° 0.3 mm 2 mps 624 mmHg 86%
    05:00 -1°C° 0 mm 2 mps 624 mmHg 86%
    06:00 -1°C° 0 mm 2 mps 624 mmHg 86%
    07:00 -1°C° 0 mm 2 mps 623 mmHg 85%
    08:00 -1°C° 0 mm 2 mps 624 mmHg 86%
    09:00 +1°C° 0 mm 2 mps 624 mmHg 87%
    10:00 +1°C° 0 mm 2 mps 625 mmHg 88%
    11:00 +2°C° 0.2 mm 2 mps 625 mmHg 90%
    12:00 +2°C° 0.2 mm 2 mps 625 mmHg 91%
    13:00 +2°C° 0.2 mm 2 mps 625 mmHg 93%
    14:00 +2°C° 0.5 mm 2 mps 625 mmHg 93%
    15:00 +1°C° 0.5 mm 2 mps 625 mmHg 94%
    16:00 -1°C° 0.5 mm 2 mps 625 mmHg 94%
    17:00 -1°C° 0.6 mm 2 mps 625 mmHg 94%
    18:00 -1°C° 0.6 mm 2 mps 626 mmHg 94%
    19:00 -2°C° 0.6 mm 2 mps 626 mmHg 93%
    20:00 -2°C° 0.6 mm 2 mps 626 mmHg 93%
    21:00 -2°C° 0.6 mm 2 mps 626 mmHg 92%
    22:00 -2°C° 0.6 mm 2 mps 626 mmHg 91%
    23:00 -2°C° 0.5 mm 2 mps 626 mmHg 91%

    23 December, Sunday

    Time Temperature Precipitation Wind Pressure Humidity
    00:00 -2°C° 0.5 mm 2 mps 626 mmHg 90%
    01:00 -2°C° 0.5 mm 2 mps 626 mmHg 90%
    02:00 -2°C° 0.9 mm 2 mps 626 mmHg 90%
    03:00 -2°C° 0.9 mm 2 mps 626 mmHg 91%
    04:00 -2°C° 0.9 mm 2 mps 626 mmHg 91%
    05:00 -2°C° 1.1 mm 2 mps 626 mmHg 92%
    06:00 -2°C° 1.1 mm 2 mps 626 mmHg 93%
    07:00 -2°C° 1.1 mm 2 mps 627 mmHg 94%
    08:00 -2°C° 1 mm 2 mps 627 mmHg 94%
    09:00 -2°C° 1 mm 2 mps 627 mmHg 94%
    10:00 -2°C° 1 mm 2 mps 627 mmHg 94%
    11:00 -2°C° 0.9 mm 2 mps 627 mmHg 94%
    12:00 -1°C° 0.9 mm 2 mps 627 mmHg 94%
    13:00 -1°C° 0.9 mm 2 mps 627 mmHg 94%
    14:00 -1°C° 0.7 mm 2 mps 627 mmHg 94%
    15:00 -2°C° 0.7 mm 2 mps 627 mmHg 94%
    16:00 -2°C° 0.7 mm 2 mps 627 mmHg 94%
    17:00 -2°C° 0.3 mm 2 mps 627 mmHg 94%
    18:00 -3°C° 0.3 mm 2 mps 627 mmHg 95%
    19:00 -3°C° 0.3 mm 2 mps 627 mmHg 95%
    20:00 -3°C° 0.2 mm 2 mps 627 mmHg 95%
    21:00 -3°C° 0.2 mm 2 mps 628 mmHg 95%
    22:00 -3°C° 0.2 mm 2 mps 628 mmHg 95%
    23:00 -4°C° 0.2 mm 2 mps 628 mmHg 95%

    24 December, Monday

    Time Temperature Precipitation Wind Pressure Humidity
    00:00 -4°C° 0.2 mm 2 mps 628 mmHg 95%
    01:00 -4°C° 0.2 mm 2 mps 628 mmHg 95%
    02:00 -4°C° 0.3 mm 2 mps 628 mmHg 95%
    03:00 -4°C° 0.3 mm 2 mps 628 mmHg 95%
    04:00 -4°C° 0.3 mm 2 mps 628 mmHg 95%
    05:00 -4°C° 0.6 mm 2 mps 628 mmHg 95%
    06:00 -5°C° 0.6 mm 2 mps 629 mmHg 95%
    07:00 -5°C° 0.6 mm 2 mps 629 mmHg 95%
    08:00 -5°C° 0.5 mm 2 mps 629 mmHg 94%
    09:00 -5°C° 0.5 mm 2 mps 629 mmHg 93%
    10:00 -5°C° 0.5 mm 3 mps 630 mmHg 92%
    11:00 -5°C° 0.3 mm 3 mps 630 mmHg 90%
    12:00 -5°C° 0.3 mm 3 mps 630 mmHg 88%
    13:00 -5°C° 0.3 mm 3 mps 630 mmHg 85%
    14:00 -5°C° 0.2 mm 2 mps 630 mmHg 87%
    15:00 -5°C° 0.2 mm 2 mps 630 mmHg 89%
    16:00 -6°C° 0.2 mm 2 mps 630 mmHg 90%
    17:00 -7°C° 0 mm 2 mps 630 mmHg 91%
    18:00 -7°C° 0 mm 2 mps 630 mmHg 91%
    19:00 -8°C° 0 mm 2 mps 630 mmHg 91%
    20:00 -9°C° 0 mm 2 mps 630 mmHg 88%
    21:00 -9°C° 0 mm 2 mps 630 mmHg 86%
    22:00 -9°C° 0 mm 2 mps 629 mmHg 83%
    23:00 -9°C° 0 mm 2 mps 629 mmHg 81%
    Show more